Location: Goll?ig?dem
(16.6773°N, 80.7332°E)
Time: 02:12:56
(UTC+00:00)

ATLAS CENTAUR R/B - Pass Details

Date: 21 April 2021
Orbit: 472 x 672 km, 64.7° (Epoch: 08 May)

Event Time Altitude Azimuth Distance (km) Brightness Sun altitude
Exits shadow 22:53:15 49° 183° (S) 622 1.4 -20.1°
Maximum altitude 22:54:07 74° 114° (ESE) 495 1.1 -19.9°
Drops below altitude 10° 22:57:42 10° 28° (NNE) 1,628 4.4 -19.1°
Sets 22:59:49 0° 26° (NNE) 2,509 5.4 -18.6°
